This demonstration page uses our WeatherBlox Daily Observations layout. Learn more.

Left ArrowRight Arrow

39.51506, -84.39828

Hourly Observations for August 7, 2021

Temp ( °F °C ) Dew Point ( °F °C ) Humidity (%) Winds ( mph kmh ) Pressure ( in mb ) Visibility ( mi km ) Precip ( " mm )
12:15 am 00:15 Clear 67 19.3 67 19.3 100 100 N N/A 30.08 1018 10 16 N/A
12:35 am 00:35 Clear 67 19.3 66 19.1 99 99 N N/A 30.07 1018 10 16 N/A
12:55 am 00:55 Clear 67 19.3 66 19.1 99 99 N N/A 30.07 1018 10 16 N/A
1:15 am 01:15 Clear 66 19 66 19 100 100 N N/A 30.07 1018 10 16 N/A
1:35 am 01:35 Clear 66 19.1 66 19.1 100 100 N N/A 30.07 1018 10 16 N/A
1:55 am 01:55 Clear 66 19 66 19 100 100 N N/A 30.06 1018 10 16 N/A
2:15 am 02:15 Clear 66 19 N/A N/A N N/A 30.06 1018 10 16 N/A
2:35 am 02:35 Clear 66 19 N/A N/A N N/A 30.05 1018 7 11 N/A
2:55 am 02:55 Clear 66 19 N/A N/A N N/A 30.05 1018 10 16 N/A
3:15 am 03:15 Clear 64 18 N/A N/A N N/A 30.06 1018 7 11 N/A
3:35 am 03:35 Clear 64 18 N/A N/A N N/A 30.06 1018 7 11 N/A
3:55 am 03:55 Hazy 64 18 N/A N/A N N/A 30.05 1018 7 11 N/A
4:15 am 04:15 Clear 64 18 N/A N/A NNE 5 7 30.05 1018 7 11 N/A
4:35 am 04:35 Clear 64 18 N/A N/A N N/A 30.05 1018 7 11 N/A
4:55 am 04:55 Mostly Cloudy with Haze 64 18 N/A N/A N N/A 30.05 1018 7 11 N/A
5:15 am 05:15 Mostly Cloudy 66 19 N/A N/A N N/A 30.05 1018 7 11 N/A
5:35 am 05:35 Clear 66 19 N/A N/A N N/A 30.04 1017 10 16 N/A
5:55 am 05:55 Partly Cloudy 66 19 N/A N/A N N/A 30.05 1018 10 16 N/A
6:15 am 06:15 Mostly Cloudy 66 19 N/A N/A N N/A 30.05 1018 7 11 N/A
6:35 am 06:35 Hazy 64 18 N/A N/A NE 5 7 30.06 1018 7 11 N/A
6:55 am 06:55 Hazy 66 19 N/A N/A N N/A 30.06 1018 5 8 N/A
7:15 am 07:15 Hazy 64 18 N/A N/A N N/A 30.06 1018 5 8 N/A
7:35 am 07:35 Mostly Cloudy with Haze 66 19 N/A N/A N N/A 30.06 1018 5 8 N/A
7:55 am 07:55 Mostly Cloudy with Haze 68 20 N/A N/A N N/A 30.05 1018 7 11 N/A
8:15 am 08:15 Sunny 68 20 N/A N/A N N/A 30.05 1018 7 11 N/A
8:35 am 08:35 Sunny 69 20.6 68 20.2 98 98 WSW 5 7 30.05 1018 7 11 N/A
8:55 am 08:55 Sunny 71 21.9 69 20.4 91 91 SSW 5 7 30.05 1018 10 16 N/A
9:15 am 09:15 Partly Cloudy 73 22.8 67 19.7 83 83 SSW 5 7 30.05 1018 10 16 N/A
9:35 am 09:35 Sunny 73 22.8 67 19.4 81 81 W 6 9 30.06 1018 10 16 N/A
9:55 am 09:55 Sunny 74 23.1 67 19.6 81 81 WSW 3 6 30.07 1018 10 16 N/A
10:15 am 10:15 Sunny 76 24.5 67 19.2 72 72 SW 7 11 30.06 1018 10 16 N/A
10:35 am 10:35 Sunny 78 25.4 68 19.8 71 71 SW 6 9 30.06 1018 10 16 N/A
10:55 am 10:55 Sunny 79 26.1 67 19.2 66 66 SW 6 9 30.06 1018 10 16 N/A
11:15 am 11:15 Partly Cloudy 79 26.3 66 19.1 65 65 SW 8 13 30.06 1018 10 16 N/A
11:35 am 11:35 Sunny 80 26.5 66 18.9 63 63 N N/A 30.06 1018 10 16 N/A
11:55 am 11:55 Sunny 81 27.2 67 19.5 63 63 SW 7 11 30.05 1018 10 16 N/A
12:15 pm 12:15 Sunny 82 27.5 67 19.7 63 63 SSE 5 7 30.05 1018 10 16 N/A
12:35 pm 12:35 Sunny 82 28 68 19.9 61 61 S 5 7 30.05 1017 10 16 N/A
12:55 pm 12:55 Sunny 83 28.6 68 20 60 60 WSW 7 11 30.03 1017 10 16 N/A
1:15 pm 13:15 Sunny 83 28.5 66 19.1 57 57 W 7 11 30.04 1017 10 16 N/A
1:35 pm 13:35 Sunny 84 28.7 67 19.2 56 56 W 6 9 30.03 1017 10 16 N/A
1:55 pm 13:55 Sunny 85 29.2 67 19.2 55 55 WSW 7 11 30.02 1017 10 16 N/A
2:15 pm 14:15 Partly Cloudy 85 29.2 67 19.4 56 56 SSW 7 11 30.01 1016 10 16 N/A
2:35 pm 14:35 Sunny 84 29 67 19.3 56 56 W 7 11 30.00 1016 10 16 N/A
2:55 pm 14:55 Sunny 86 29.8 68 19.8 55 55 SW 5 7 30.00 1016 10 16 N/A
3:15 pm 15:15 Mostly Cloudy 85 29.7 67 19.4 54 54 WSW 9 15 30.00 1016 10 16 N/A
3:35 pm 15:35 Partly Cloudy 87 30.4 67 19.7 53 53 SW 10 17 29.99 1016 10 16 N/A
3:55 pm 15:55 Partly Cloudy 87 30.3 67 19.4 52 52 W 8 13 29.99 1016 10 16 N/A
4:15 pm 16:15 Partly Cloudy 85 29.4 67 19.4 55 55 WSW 8 13 29.99 1016 10 16 N/A
4:35 pm 16:35 Partly Cloudy 87 30.3 66 19 51 51 SW 10 17 29.98 1015 10 16 N/A
4:55 pm 16:55 Sunny 87 30.6 67 19.2 51 51 WSW 9 15 29.97 1015 10 16 N/A
5:15 pm 17:15 Sunny 87 30.3 67 19.2 51 51 WSW 10 17 29.97 1015 10 16 N/A
5:35 pm 17:35 Sunny 87 30.4 67 19.2 51 51 WSW 12 19 29.97 1015 10 16 N/A
5:55 pm 17:55 Partly Cloudy 85 29.2 67 19.3 55 55 WSW 7 11 29.97 1015 10 16 N/A
6:15 pm 18:15 Sunny with Nearby Thunderstorms 83 28.6 67 19.7 59 59 W 8 13 29.98 1015 10 16 N/A
6:35 pm 18:35 Partly Cloudy 83 28.4 68 19.9 60 60 WSW 5 7 29.99 1015 10 16 N/A
6:55 pm 18:55 Sunny with Nearby Thunderstorms 83 28.3 68 20.2 62 62 W 3 6 29.99 1015 10 16 N/A
7:15 pm 19:15 Partly Cloudy with Light Rain 82 27.6 72 22 72 72 WNW 3 6 30.00 1016 10 16 N/A
7:35 pm 19:35 Cloudy 79 26 70 21.2 75 75 E 12 19 30.00 1016 10 16 N/A
7:55 pm 19:55 Sunny with Light Rain 76 24.4 71 21.7 85 85 ENE 7 11 30.01 1016 10 16 N/A
8:15 pm 20:15 Sunny 76 24.2 70 21.3 84 84 NNE 3 6 30.01 1016 10 16 N/A
8:35 pm 20:35 Sunny 75 23.9 71 21.6 87 87 ENE 5 7 30.02 1016 10 16 N/A
8:55 pm 20:55 Clear 74 23.3 71 21.6 90 90 N N/A 30.01 1016 10 16 N/A
9:15 pm 21:15 Clear 74 23.1 71 21.6 91 91 ENE 6 9 30.01 1016 10 16 N/A
9:35 pm 21:35 Cloudy 73 22.9 71 21.7 93 93 N 6 9 30.04 1017 10 16 N/A
9:55 pm 21:55 Mostly Cloudy 73 22.8 71 21.6 93 93 N 5 7 30.04 1017 10 16 N/A
10:15 pm 22:15 Mostly Cloudy with Light Rain 73 22.5 71 21.8 96 96 NE 5 7 30.04 1017 10 16 N/A
10:35 pm 22:35 Clear with Mist and Fog 73 22.5 71 21.7 95 95 N N/A 30.04 1017 5 8 N/A
10:55 pm 22:55 Clear 72 22.1 71 21.7 98 98 N N/A 30.03 1017 10 16 N/A
11:15 pm 23:15 Clear 70 21 70 21 100 100 N N/A 30.03 1017 7 11 N/A
11:35 pm 23:35 Hazy 70 21 N/A N/A N N/A 30.02 1017 5 8 N/A
11:55 pm 23:55 Clear with Mist and Fog 68 20 N/A N/A N N/A 30.02 1017 3 5 N/A

Powered by AerisWeather